Regional Weather Roundup
Issued by NWS

Home | Current Version | Previous Version | Graphics & Text | Print | Product List | Glossary On
Versions: 1 2 3 4 5 6 7 8 9 10 11 12 13 14 15 16 17 18 19 20 21 22 23 24 25 26 27 28 29 30 31 32 33 34 35 36 37 38 39 40 41 42 43 44 45 46 47 48 49 50
000
ASUS43 KDMX 020307
RWRIA

WEATHER ROUNDUP FOR IOWA
NATIONAL WEATHER SERVICE DES MOINES IA
1000 PM CDT WED JUL 01 2015

NOTE: "FAIR" INDICATES FEW OR NO CLOUDS BELOW 12,000 FEET WITH NO
SIGNIFICANT WEATHER AND/OR OBSTRUCTIONS TO VISIBILITY.

* - THESE STATIONS ARE NOT NWS STATIONS...THUS NOT UNDER NWS
QUALITY CONTROL.  THEY ALSO DO NOT REPORT WEATHER SUCH
AS PRECIPITATION OR FOG.

IAZ001>003-012>014-020>022-031>034-043>046-020400-
   NORTHWEST IOWA

CITY           SKY/WX    TMP DP  RH WIND       PRES   REMARKS
CARROLL *      CLOUDY    66  59  77 E10       29.96R
CHEROKEE *     CLEAR     64  57  77 E5        29.96S
DENISON *      CLOUDY    66  59  77 E9        29.93R
LE MARS *        N/A     68  59  73 E6G13     29.96R
ORANGE CITY *  CLEAR     63  54  72 E7        29.97R
SHELDON *      MOCLDY    64  64 100 E8        29.97R
SIOUX CITY     CLEAR     69  61  75 E8        29.94R
SPENCER        PTCLDY    63  54  72 E9        29.98S
STORM LAKE *   PTCLDY    63  55  77 E13       29.97S
$$

IAZ055>058-069>071-079>083-090>094-020400-
   SOUTHWEST IOWA

CITY           SKY/WX    TMP DP  RH WIND       PRES   REMARKS
ATLANTIC *     MOCLDY    70  64  83 NE8       29.93R
AUDUBON *      LGT RAIN  66  61  82 NE7       29.96R
CLARINDA *     MOCLDY    72  68  88 NE6G13    29.91R
COUNCIL BLFS * CLEAR     70  66  88 E12       29.92R
CRESTON *      CLOUDY    68  64  88 E10       29.92R
HARLAN  *      DRIZZLE   70  70 100 E8        29.97R
LAMONI         CLOUDY    70  66  87 NE9       29.91R
RED OAK *      CLOUDY    72  66  83 NE10      29.91R
SHENANDOAH *     N/A     73  68  83 NE12      29.90R
$$

IAZ047>049-059>061-072>074-084-020400-
   CENTRAL IOWA

CITY           SKY/WX    TMP DP  RH WIND       PRES   REMARKS
AMES           CLEAR     63  56  78 NE6       29.97R
ANKENY *       CLEAR     64  61  88 NE7       29.95R
CHARITON *     CLOUDY    68  63  83 E8        29.93R
DES MOINES     MOCLDY    69  56  62 E9        29.94R
GRINNELL*      MOCLDY    63  57  82 NE8       29.97R
KNOXVILLE *    CLOUDY    68  57  68 NE7       29.93R
MARSHALLTOWN   MOCLDY    61  55  81 NE8       29.96S
PELLA *        MOCLDY    64  63  94 CALM      29.95R
PERRY *        CLOUDY    66  57  72 NE8       29.96R
$$

IAZ004>006-015-016-023>025-035-036-020400-
   NORTH CENTRAL IOWA

CITY           SKY/WX    TMP DP  RH WIND       PRES   REMARKS
ALGONA *       CLOUDY    61  55  82 E6        30.00S
CLARION *      PTCLDY    59  54  82 E7        30.00R
ESTHERVILLE    PTCLDY    59  55  87 E7        30.00R
FORT DODGE *   CLOUDY    61  54  77 E7        30.00R
MASON CITY     CLEAR     54  52  93 NE5       30.02R
FOREST CITY *  CLEAR     57  52  82 CALM      30.01S
IOWA FALLS *     N/A     59  54  82 NE3       30.00R
$$

IAZ007>011-017>019-026>030-037>042-050>054-066-020400-
   NORTHEAST IOWA

CITY           SKY/WX    TMP DP  RH WIND       PRES   REMARKS
CEDAR RAPIDS   LGT RAIN  63  57  81 NE10      29.96R
CHARLES CITY * CLEAR     57  55  94 NE5       30.01S
CLINTON *      CLOUDY    63  55  77 NE7       29.99S
DECORAH *        N/A    N/A N/A N/A MISG        N/A
DUBUQUE        MOCLDY    61  50  67 NE9       29.98S
MONTICELLO *   CLEAR     61  57  88 NE6       29.97S
OELWEIN *        N/A     59  55  88 NE6       30.00R
WATERLOO       CLOUDY    61  55  81 NE3       29.98R
$$

IAZ064-065-067-068-078-020400-
   EAST CENTRAL IOWA

CITY           SKY/WX    TMP DP  RH WIND       PRES   REMARKS
DAVENPORT      CLOUDY    64  55  72 NE10      29.97R
IOWA CITY      CLOUDY    66  56  70 NE10      29.96R
MT. PLEASANT * CLOUDY    68  61  77 NE5       29.93R
MUSCATINE *    CLOUDY    68  57  68 NE9       29.95R
QUAD CITIES    MOCLDY    68  55  63 NE12      29.95R
$$

IAZ062-063-075>077-085>089-095>099-020400-
   SOUTHEAST IOWA

CITY           SKY/WX    TMP DP  RH WIND       PRES   REMARKS
BURLINGTON     CLOUDY    69  62  78 NE8       29.92R
FAIRFIELD *    CLOUDY    66  61  82 NE7       29.94R
FORT MADISON * CLOUDY    66  63  88 NE7       29.93R
KEOKUK *       CLOUDY    70  66  88 NE9       29.91R
OSKALOOSA *    CLOUDY    66  59  77 E8        29.94R
CENTERVILLE *  CLEAR     68  64  88 NE9       29.93R
OTTUMWA        MOCLDY    67  63  87 NE6       29.91R
WASHINGTON *   CLOUDY    66  61  82 NE8       29.96R
$$

ABBREVIATIONS USED IN REMARKS
   TC - TEMPERATURES IN CELSIUS
  WCI - WIND CHILL INDEX
   HX - HEAT INDEX
  VSB - VISIBILITY
$$




USA.gov is the U.S. government's official web portal to all federal, state and local government web resources and services.